#timestamp,LO_Frequency,Hit,StdDev 
1586156415.8,286047000.4,N
1586156435.6,286047004.0,N
1586156455.4,286047001.5,N
1586156475.3,286047000.5,N
1586156495.1,286046999.9,N
1586156515.9,286046999.2,N
1586156535.7,286047002.8,N
1586156555.5,286047000.0,N
1586156575.4,286047000.5,N
1586156595.2,286047000.6,N
1586156615.1,286047000.5,N
1586156616.0,286047000.5,N
1586156635.8,286047002.7,N
1586156655.6,286047000.9,N
1586156675.5,286047002.4,N
1586156695.3,286047002.3,N
1586156715.2,286047004.0,N
1586156735.9,286047002.0,N
1586156755.7,286047000.4,N
1586156775.6,286047002.4,N
1586156795.4,286046999.8,N
1586156815.2,286046998.5,N
1586156835.1,286047000.8,N
1586156836.0,286047000.8,N
1586156855.8,286046998.3,N
1586156875.7,286046998.7,N
1586156895.5,286047002.8,N
1586156915.3,286047001.9,N
1586156935.2,286046998.9,N
1586156955.0,286046999.0,N
1586156955.9,286046999.0,N
1586156975.8,286047000.3,N
1586156995.6,286046998.8,N
1586157015.4,286047000.8,N
1586157035.3,286046999.2,N
1586157055.1,286046999.5,N
1586157075.9,286046998.3,N
1586157095.7,286046998.4,N
1586157115.5,286046998.8,N
1586157135.4,286046998.7,N
1586157155.2,286046999.1,N
1586157175.0,286046998.6,N
1586157176.0,286046998.6,N
1586157195.8,286046997.7,N
1586157215.6,286046999.5,N
1586157235.5,286046995.4,N
1586157255.3,286046994.9,N
1586157275.1,286046995.6,N
1586157295.9,286046996.6,N
1586157315.7,286046996.9,N
1586157335.6,286046997.2,N
1586157355.4,286046997.1,N
1586157375.2,286046995.6,N
1586157395.1,286046993.4,Y
1586157396.0,286046993.4,P
1586157415.8,286046996.0,N
1586157435.7,286046995.7,N
1586157455.5,286046994.2,Y
1586157475.3,286046999.3,P
1586157495.2,286046998.7,N
1586157515.0,286046999.5,N
1586157515.9,286046999.5,N
1586157535.8,286046996.9,N
1586157555.6,286046997.8,N
1586157575.4,286046996.9,N
1586157595.3,286046997.9,N
1586157615.1,286046998.0,N
1586157635.9,286046995.9,Y
1586157655.7,286046997.7,P
1586157675.5,286046997.5,P
1586157695.4,286046998.0,P
1586157715.2,286046995.0,Y
1586157735.0,286046998.6,P
1586157736.0,286046998.6,P
1586157755.8,286046998.3,P
1586157775.6,286046999.1,N
1586157795.5,286047000.8,N
1586157815.3,286046999.4,N
1586157835.1,286046999.3,N
1586157855.9,286046996.7,Y
1586157875.7,286046996.5,P
1586157895.6,286046996.6,N
1586157915.4,286046999.2,N
1586157935.2,286046998.8,N
1586157955.1,286046999.3,N
1586157956.0,286046999.3,N
1586157975.8,286046996.9,N
1586157995.7,286046999.2,N
1586158015.5,286046999.6,N
1586158035.3,286046999.5,N
1586158055.2,286046997.4,N
1586158075.0,286046997.7,N
1586158075.9,286046997.7,N
1586158095.8,286046997.4,N
1586158115.6,286046995.1,Y
1586158135.5,286046997.1,P
1586158155.3,286046997.2,P
1586158175.1,286046997.0,P
1586158195.9,286046997.7,Y
1586158215.7,286046998.3,P
1586158235.5,286046998.5,P
1586158255.4,286046998.1,P
1586158275.2,286047001.2,N
1586158295.1,286046996.5,N
1586158296.0,286046996.5,N
1586158315.8,286047001.0,N
1586158335.6,286047011.9,Y
1586158355.5,286047002.6,P
1586158375.3,286047002.4,N
1586158395.2,286047000.1,N
1586158415.9,286047001.8,N
1586158435.7,286047004.0,N
1586158455.6,286047001.3,N
1586158475.4,286047003.3,N
1586158495.2,286047003.3,N
1586158515.1,286047003.1,N
1586158516.0,286047003.1,N
1586158535.8,286047002.0,N
1586158555.7,286047004.4,N
1586158575.5,286047004.1,N
1586158595.3,286047002.9,N
1586158615.2,286047004.9,Y
1586158635.0,286047002.5,P
1586158635.9,286047002.5,P
1586158655.8,286047003.9,P
1586158675.6,286047003.4,Y
1586158695.4,286047001.9,P
1586158715.3,286047000.9,N
1586158735.1,286047000.0,N
1586158755.9,286047000.2,N
1586158775.7,286047004.4,Y
1586158795.5,286047002.4,P
1586158815.4,286047000.1,N
1586158835.2,286047001.9,N
1586158855.0,286047002.0,N
1586158856.0,286047002.0,N
1586158875.8,286047001.8,N
1586158895.6,286047004.3,Y
1586158915.5,286047002.0,P
1586158935.3,286046998.9,P
1586158955.2,286046998.1,N
1586158975.9,286047002.7,N
1586158995.7,286047004.0,N
1586159015.6,286047000.0,N
1586159035.4,286047002.4,N
1586159055.2,286047000.5,N
1586159075.1,286046999.9,N
1586159076.0,286046999.9,N
1586159095.8,286047002.4,N
1586159115.7,286046998.2,N
1586159135.5,286046996.6,N
1586159155.3,286046999.2,N
1586159175.2,286046996.5,N
1586159195.0,286046999.6,N
1586159195.9,286046999.6,N
1586159215.8,286046998.8,N
1586159235.6,286046998.4,N
1586159255.4,286046999.3,N
1586159275.3,286046999.0,N
1586159295.1,286046999.1,N
1586159315.8,286046998.5,N
1586159335.7,286046998.8,N
1586159355.5,286046998.3,N
1586159375.4,286046996.5,N
1586159395.2,286046998.8,N
1586159415.0,286046996.9,N
1586159415.9,286046996.9,N
1586159435.8,286046997.4,N
1586159455.6,286046999.3,N
1586159475.5,286046998.2,N
1586159495.3,286047000.0,N
1586159515.1,286047002.5,N
1586159535.9,286046998.5,N
1586159555.7,286046997.0,N
1586159575.6,286046998.8,N
1586159595.4,286047002.0,N
1586159615.2,286047002.8,N
1586159635.1,286046998.1,N
1586159636.0,286046998.1,N
1586159655.8,286047003.8,N
1586159675.7,286047006.0,Y
1586159695.5,286047006.9,P
1586159715.3,286047007.3,N
1586159735.2,286047007.0,N
1586159755.0,286047005.0,N
1586159755.9,286047005.0,N
1586159775.7,286047004.7,N
1586159795.6,286047007.5,N
1586159815.4,286047004.6,N
1586159835.3,286047007.4,N
1586159855.1,286047004.5,N
1586159856.0,286047004.5,N
1586159875.8,286047007.2,Y
1586159895.7,286047001.0,P
1586159915.5,286046999.7,N
1586159935.4,286047000.0,N
1586159955.2,286046998.8,N
1586159975.0,286047000.8,N
1586159975.9,286047000.8,N
1586159995.8,286046999.7,N
